User: anonymous   Login
Location: Unspecified
(0.0000°N, 0.0000°E)
Time: 14:00:00
(UTC+02:00)
Language:

Cosmos 494 Rocket - Orbit

View from above orbital plane
View from above orbital plane
View from above satellite
View from above satellite

Ground track
Ground track

The orbit data is extracted from the following two-line orbital elements,

1 06061U 72043B   14296.19576132  .00000334  00000-0  11376-3 0  5644
2 06061 074.0568 167.6620 0020080 184.4977 314.7352 14.40202537218940
Epoch (UTC): 23 October 2014 04:41:53
Eccentricity: 0.0020080
inclination: 74.0568°
perigee height: 743 km
apogee height: 772 km
right ascension of ascending node: 167.6620°
argument of perigee: 184.4977°
revolutions per day: 14.40202537
mean anomaly at epoch: 314.7352°
orbit number at epoch: 21894

The dashed part of the orbit path shows where the satellite is in the earth's shadow,  

DLR